Location: Asheville, NC
(35.6000°N, 82.5500°W)
Time: 17:38:28

KAITUO 1B - Pass Details

Date: 18 March 2018
Orbit: 500 x 520 km, 97.5° (Epoch: 20 March)

Event Time Altitude Azimuth Distance (km) Brightness Sun altitude
Rises 20:03:43 0° 207° (SSW) 2,581 ? -5.6°
Reaches altitude 10° 20:06:38 10° 234° (SW) 1,707 ? -6.2°
Maximum altitude 20:08:37 14° 267° (W) 1,480 ? -6.6°
Drops below altitude 10° 20:10:36 10° 299° (WNW) 1,720 ? -7.0°
Sets 20:13:34 0° 326° (NW) 2,616 ? -7.6°
